Regional Weather Roundup
Issued by NWS Burlington, VT

Home | Current Version | Previous Version | Text Only | Print | Product List | Glossary On
Versions: 1 2 3 4 5 6 7 8 9 10 11 12 13 14 15 16 17 18 19 20 21 22 23 24 25 26 27
000
ASUS41 KBTV 251210
RWRBTV
VERMONT REGIONAL WEATHER ROUNDUP
NATIONAL WEATHER SERVICE BURLINGTON VT
800 AM EDT SAT OCT 25 2014

NOTE: "FAIR" INDICATES FEW OR NO CLOUDS BELOW 12,000 FEET WITH NO
SIGNIFICANT WEATHER AND/OR OBSTRUCTIONS TO VISIBILITY.

* THESE REPORTS ARE NOT UNDER NWS QUALITY CONTROL AND/OR DO NOT
  REPORT WEATHER SUCH AS PRECIPITATION AND FOG.

VTZ001>019-251300-
_____VERMONT_____


CITY           SKY/WX    TMP DP  RH WIND       PRES   REMARKS
BURLINGTON     PTSUNNY   36  34  92 E3        29.78S
6HR MIN TEMP:  35; 6HR MAX TEMP:  38;

MONTPELIER     MOSUNNY   32  31  96 CALM      29.78F
6HR MIN TEMP:  31; 6HR MAX TEMP:  35;

MORRISVILLE    PTSUNNY   32  31  96 CALM      29.77F
6HR MIN TEMP:  31; 6HR MAX TEMP:  34;

ST. JOHNSBURY*   N/A     33  33 100 MISG      29.76S
6HR MIN TEMP:  33; 6HR MAX TEMP:  38;

LYNDONVILLE*   FOG       31  29  94 CALM      29.77S VSB<1/4
6HR MIN TEMP:  30; 6HR MAX TEMP:  37;

MIDDLEBURY*    FAIR      36  36 100 CALM      29.78S
6HR MIN TEMP:  35; 6HR MAX TEMP:  38;

RUTLAND*       SUNNY     34  32  93 CALM      29.80S
6HR MIN TEMP:  34; 6HR MAX TEMP:  37;

SPRINGFIELD    FOG       33  33 100 CALM      29.79R VSB 3/4
6HR MIN TEMP:  32; 6HR MAX TEMP:  40;

HIGHGATE*      FAIR      41  38  91 S3        29.76R
6HR MIN TEMP:  37; 6HR MAX TEMP:  42;

NEWPORT*       FAIR      31  31  99 SW5       29.75S
6HR MIN TEMP:  30; 6HR MAX TEMP:  34;

BENNINGTON     CLOUDY    42  40  92 CALM      29.82S FOG
6HR MIN TEMP:  34; 6HR MAX TEMP:  44;


_____LAKE CHAMPLAIN_____


CITY           SKY/WX    TMP DP  RH WIND       PRES   REMARKS
COLCHESTER RF*   N/A     45  45 100 SW15        N/A
DIAMOND ISL*     N/A     43  41  93 S7          N/A

$$

NYZ007-026>031-035-052-083-251300-
_____NORTHERN NEW YORK_____


CITY           SKY/WX    TMP DP  RH WIND       PRES   REMARKS
PLATTSBURGH    PTSUNNY   46  38  73 VRB6      29.77R
6HR MIN TEMP:  37; 6HR MAX TEMP:  46;

SARANAC LAKE   CLOUDY    39  38  96 SW8       29.76F FOG
6HR MIN TEMP:  31; 6HR MAX TEMP:  40;

MASSENA        MOSUNNY   39  37  92 SW7       29.79R
6HR MIN TEMP:  37; 6HR MAX TEMP:  45;

OGDENSBURG*    CLOUDY    43  43 100 CALM      29.78S
POTSDAM*       MOSUNNY   41  41 100 SW5       29.78S
WATERTOWN      CLOUDY    48  41  76 S6        29.80F
6HR MIN TEMP:  39; 6HR MAX TEMP:  48;

FT DRUM        CLOUDY    47  44  91 SW8       29.79F
6HR MIN TEMP:  44; 6HR MAX TEMP:  47;

ALBANY         MOSUNNY   40  37  89 CALM      29.84S
6HR MIN TEMP:  39; 6HR MAX TEMP:  47;

GLENS FALLS    FOG       41  40  96 CALM      29.81S VSB 1/4
6HR MIN TEMP:  40; 6HR MAX TEMP:  43;


$$
NHZ002-005-011-251300-
_____NEW HAMPSHIRE_____


CITY           SKY/WX    TMP DP  RH WIND       PRES   REMARKS
LEBANON        FOG       36  34  92 CALM      29.77S VSB<1/4
6HR MIN TEMP:  33; 6HR MAX TEMP:  39;

KEENE          CLOUDY    37  30  75 CALM      29.79S VSB<1/4
6HR MIN TEMP:  37; 6HR MAX TEMP:  43;

MT WASHINGTON  MOSUNNY   32  23  69 NW40        N/A
6HR MIN TEMP:  27; 6HR MAX TEMP:  32;

PLYMOUTH       FAIR      47  40  76 W7        29.72S
6HR MIN TEMP:  40; 6HR MAX TEMP:  47;

WHITEFIELD     FOG       33  32  96 CALM      29.76S VSB 3/4
6HR MIN TEMP:  31; 6HR MAX TEMP:  42;


$$

_____REGIONAL QUEBEC LOCATIONS_____


CITY           SKY/WX    TMP DP  RH WIND       PRES   REMARKS
MONTREAL       MOSUNNY   43  36  75 SW14      29.74R
QUEBEC CITY    MOSUNNY   30  30 100 SW5       29.70S
SHERBROOKE     SUNNY     32  32 100 E3        29.73S

_____REGIONAL ONTARIO LOCATIONS_____


CITY           SKY/WX    TMP DP  RH WIND       PRES   REMARKS
OTTAWA         PTSUNNY   39  36  87 S6        29.75F

______KEY______
VSB  - VISIBILITY IN MILES
WCI  - WIND CHILL INDEX
HX   - HEAT INDEX
$$
NNNN



USA.gov is the U.S. government's official web portal to all federal, state and local government web resources and services.